Location: Gleizolles
(44.4833°N, 6.7667°E)
Time: 16:57:54
(UTC+00:00)

Tiros 1 - Pass Details

Date: 25 June 2024
Orbit: 624 x 656 km, 48.4° (Epoch: 13 July)

Event Time Altitude Azimuth Distance (km) Brightness Sun altitude
Rises 01:34:34 0° 281° (W) 2,906 10.3 -16.9°
Reaches altitude 10° 01:36:56 10° 286° (WNW) 2,002 9.5 -16.7°
Maximum altitude 01:41:26 52° 3° (N) 786 7.9 -16.3°
Drops below altitude 10° 01:45:58 10° 81° (E) 2,017 10.2 -15.9°
Sets 01:48:21 0° 86° (E) 2,931 11.0 -15.7°
